CAPE
3 3 3 2 2 2 1 1 1 2 2 1 0 0 0 1 1 0 0 0 0 0 0 0 0 0 0 0 0 0 0 0 0 0 0 0 0 0 0 0 0 0 0 0 81
4 2 5 3 3 4 2 2 1 1 1 1 0 0 0 2 0 0 0 0 0 0 0 0 0 0 0 0 0 0 0 0 0 0 0 0 0 0 0 0 0 0 0 0 12
1 1 1 1 1 3 3 3 2 1 1 0 0 0 0 3 0 0 0 0 0 0 0 0 0 0 0 0 0 0 0 0 0 0 0 0 0 0 0 0 0 0 0 0 0
1 1 1 1 1 1 1 4 2 1 0 0 0 0 0 0 0 0 0 0 0 0 0 0 0 0 0 0 0 0 0 0 0 0 0 0 0 0 0 0 0 0 0 0 0
1 1 1 1 2 0 1 1 2 1 0 0 0 1 0 0 0 0 0 0 0 0 0 0 0 0 0 0 0 0 0 0 0 0 0 0 0 0 0 0 0 0 0 0 0
2 3 3 2 2 1 0 1 0 0 0 0 0 1 0 0 0 0 0 0 0 0 0 0 0 0 0 0 0 0 0 0 0 0 0 0 0 0 0 0 0 0 0 0 0
1 1 2 1 1 0 0 0 0 0 0 0 0 0 0 0 0 0 0 0 0 0 0 0 0 0 0 0 0 0 0 0 0 0 0 0 0 0 0 0 0 0 0 0 0
0 0 3 1 2 0 1 0 0 0 0 0 0 0 0 0 0 0 0 0 0 0 0 0 0 0 0 0 0 0 0 0 0 0 0 0 0 0 0 0 0 0 0 0 0
0 1 1 1 1 1 0 0 0 0 0 0 0 0 0 0 0 0 0 0 0 0 0 0 0 0 0 0 0 0 0 0 0 0 0 0 0 0 0 0 0 0 0 0 0
1 1 0 0 0 0 0 0 0 0 0 0 0 0 0 0 0 0 0 0 0 0 0 0 0 0 0 0 0 0 0 0 0 0 0 0 0 0 0 0 0 0 0 0 0
4 1 1 0 0 0 0 0 0 0 0 0 0 0 0 0 0 0 0 0 0 0 0 0 0 0 0 0 0 0 0 0 0 0 0 0 0 0 0 0 0 0 0 0 0
0 1 1 0 0 0 0 0 0 0 0 0 0 0 0 0 0 0 0 0 0 0 0 0 0 0 0 0 0 0 0 0 0 0 0 0 0 0 0 0 0 0 0 0 0
0 1 1 0 0 0 0 0 0 0 0 0 0 0 0 0 0 0 0 0 0 0 0 0 0 0 0 0 0 0 0 0 0 0 0 0 0 0 0 0 0 0 0 0 0
0 1 0 0 0 0 0 0 0 0 0 0 0 0 0 0 0 0 0 0 0 0 0 0 0 0 0 0 0 0 0 0 0 0 0 0 0 0 0 0 0 0 0 0 0
2 2 1 0 0 0 0 0 0 0 0 0 0 0 0 0 0 0 0 0 0 0 0 0 0 0 0 0 0 0 0 0 0 0 0 0 0 0 0 0 0 0 0 0 0
2 0 0 0 0 0 0 0 0 0 0 0 0 0 0 0 0 0 0 0 0 0 0 0 0 0 0 0 0 0 0 0 0 0 0 0 0 0 0 0 0 0 0 0 0
0 0 0 0 0 0 0 0 0 0 0 0 0 0 0 0 0 0 0 0 0 0 0 0 0 0 0 0 0 0 0 0 0 0 0 0 0 0 0 0 0 0 0 0 0
0 0 0 0 0 0 0 0 0 0 0 0 0 0 0 0 0 0 0 0 0 0 0 0 0 0 0 0 0 0 0 0 0 0 0 0 0 0 0 0 0 0 0 0 0
0 0 0 0 0 0 0 0 0 0 0 0 0 0 0 0 0 0 0 0 0 0 0 0 0 0 0 0 0 0 0 0 0 0 0 0 0 0 0 0 0 0 0 0 0
0 0 0 0 0 0 0 0 0 0 0 0 0 0 0 0 0 0 0 0 0 0 0 0 0 0 0 0 0 0 0 0 0 0 0 0 0 0 0 0 0 0 0 0 0
0 0 0 0 0 0 0 0 0 0 0 0 0 0 0 0 0 0 0 0 0 2 0 0 0 0 0 0 0 0 0 0 0 0 0 0 0 0 0 1 0 0 0 0 0
0 0 0 0 0 0 0 0 0 0 0 0 0 0 0 0 0 0 0 0 0 6 0 0 0 0 0 0 0 0 0 0 0 0 0 7 0 0 0 0 0 0 0 0 0
0 0 0 0 0 0 0 0 0 0 0 0 0 0 0 0 0 0 0 1 0 0 0 0 0 0 0 0 0 0 0 0 0 0 0 0 0 0 0 0 0 0 0 0 0
0 0 0 0 0 0 0 0 0 0 0 0 0 0 0 0 0 0 0 0 0 0 1 27 0 0 0 0 0 0 0 0 0 0 0 0 0 0 0 0 0 0 0 0 0
0 0 0 0 0 0 0 0 0 0 0 0 0 0 0 0 0 0 0 0 0 0 0 28 1 0 0 0 0 0 0 0 0 0 7 0 0 0 0 0 0 0 0 0 54
0 0 0 0 0 0 0 0 0 0 0 0 0 0 0 0 0 0 0 0 0 0 0 0 0 0 0 0 0 0 0 0 0 0 0 1 0 0 0 0 0 0 0 0 0
0 0 0 0 0 0 0 0 0 0 0 0 0 0 0 0 0 0 0 0 0 0 0 0 0 0 0 0 0 0 0 0 0 0 0 0 0 0 0 0 0 0 0 0 0
CIN
-0 -0 -0 -0 -0 -0 -0 -0 -0 -0 -0 -0 -0 -0 -0 -0 -0 -0 -0 -0 -0 -0 -0 -0 -0 -0 -0 -0 -0 -0 -0 -0 -0 -0 -0 -0 -0 -0 -0 -0 -0 -0 -0 -0 -294
-1 -1 -0 -0 -0 -0 -0 -0 -0 -0 -0 -0 -0 -0 -0 -0 -0 -0 -0 -0 -0 -0 -0 -0 -0 -0 -0 -0 -0 -0 -0 -0 -0 -0 -0 -0 -0 -0 -0 -0 -0 -0 -0 -0 -82
-0 -0 -0 -0 -0 -0 -0 -0 -0 -0 -0 -0 -0 -0 -0 -0 -0 -0 -0 -0 -0 -0 -0 -0 -0 -0 -0 -0 -0 -0 -0 -0 -0 -0 -0 -0 -0 -0 -0 -0 -0 -0 -0 -0 -0
-0 -0 -0 -0 -0 -0 -0 -0 -0 -0 -0 -0 -0 -0 -0 -0 -0 -0 -0 -0 -0 -0 -0 -0 -0 -0 -0 -0 -0 -0 -0 -0 -0 -0 -0 -0 -0 -0 -0 -0 -0 -0 -0 -0 -0
-0 -0 -0 -0 -0 -0 -0 -0 -0 -0 -0 -0 -0 -0 -0 -0 -0 -0 -0 -0 -0 -0 -0 -0 -0 -0 -0 -0 -0 -0 -0 -0 -0 -0 -0 -0 -0 -0 -0 -0 -0 -0 -0 -0 -0
-0 -0 -0 -0 -0 -0 -0 -0 -0 -0 -0 -0 -0 -0 -0 -0 -0 -0 -0 -0 -0 -0 -0 -0 -0 -0 -0 -0 -0 -0 -0 -0 -0 -0 -0 -0 -0 -0 -0 -0 -0 -0 -0 -0 -0
-0 -0 -0 -1 -0 -0 -0 -0 -0 -0 -0 -0 -0 -0 -0 -0 -0 -0 -0 -0 -0 -0 -0 -0 -0 -0 -0 -0 -0 -0 -0 -0 -0 -0 -0 -0 -0 -0 -0 -0 -0 -0 -0 -0 -0
-0 -0 -0 -0 -0 -0 -0 -0 -0 -0 -0 -0 -0 -0 -0 -0 -0 -0 -0 -0 -0 -0 -0 -0 -0 -0 -0 -0 -0 -0 -0 -0 -0 -0 -0 -0 -0 -0 -0 -0 -0 -0 -0 -0 -0
-0 -0 -0 -0 -0 -0 -0 -0 -0 -0 -0 -0 -0 -0 -0 -0 -0 -0 -0 -0 -0 -0 -0 -0 -0 -0 -0 -0 -0 -0 -0 -0 -0 -0 -0 -0 -0 -0 -0 -0 -0 -0 -0 -0 -0
-0 -0 -0 -0 -0 -0 -0 -0 -0 -0 -0 -0 -0 -0 -0 -0 -0 -0 -0 -0 -0 -0 -0 -0 -0 -0 -0 -0 -0 -0 -0 -0 -0 -0 -0 -0 -0 -0 -0 -0 -0 -0 -0 -0 -0
-0 -0 -0 -0 -0 -0 -0 -0 -0 -0 -0 -0 -0 -0 -0 -0 -0 -0 -0 -0 -0 -0 -0 -0 -0 -0 -0 -0 -0 -0 -0 -0 -0 -0 -0 -0 -0 -0 -0 -0 -0 -0 -0 -0 -0
-0 -0 -0 -0 -0 -0 -0 -0 -0 -0 -0 -0 -0 -0 -0 -0 -0 -0 -0 -0 -0 -0 -0 -0 -0 -0 -0 -0 -0 -0 -0 -0 -0 -0 -0 -0 -0 -0 -0 -0 -0 -0 -0 -0 -0
-0 -0 -0 -0 -0 -0 -0 -0 -0 -0 -0 -0 -0 -0 -0 -0 -0 -0 -0 -0 -0 -0 -0 -0 -0 -0 -0 -0 -0 -0 -0 -0 -0 -0 -0 -0 -0 -0 -0 -0 -0 -0 -0 -0 -0
-0 -0 -0 -0 -0 -0 -0 -0 -0 -0 -0 -0 -0 -0 -0 -0 -0 -0 -0 -0 -0 -0 -0 -0 -0 -0 -0 -0 -0 -0 -0 -0 -0 -0 -0 -0 -0 -0 -0 -0 -0 -0 -0 -0 -0
-0 -0 -0 -0 -0 -0 -0 -0 -0 -0 -0 -0 -0 -0 -0 -0 -0 -0 -0 -0 -0 -0 -0 -0 -0 -0 -0 -0 -0 -0 -0 -0 -0 -0 -0 -0 -0 -0 -0 -0 -0 -0 -0 -0 -0
-0 -0 -0 -0 -0 -0 -0 -0 -0 -0 -0 -0 -0 -0 -0 -0 -0 -0 -0 -0 -0 -0 -0 -0 -0 -0 -0 -0 -0 -0 -0 -0 -0 -0 -0 -0 -0 -0 -0 -0 -0 -0 -0 -0 -0
-0 -0 -0 -0 -0 -0 -0 -0 -0 -0 -0 -0 -0 -0 -0 -0 -0 -0 -0 -0 -0 -0 -0 -0 -0 -0 -0 -0 -0 -0 -0 -0 -0 -0 -0 -0 -0 -0 -0 -0 -0 -0 -0 -0 -0
-0 -0 -0 -0 -0 -0 -0 -0 -0 -0 -0 -0 -0 -0 -0 -0 -0 -0 -0 -0 -0 -0 -0 -0 -0 -0 -0 -0 -0 -0 -0 -0 -0 -0 -0 -0 -0 -0 -0 -0 -0 -0 -0 -0 -0
-0 -0 -0 -0 -0 -0 -0 -0 -0 -0 -0 -0 -0 -0 -0 -0 -0 -0 -0 -0 -0 -0 -0 -0 -0 -0 -0 -0 -0 -0 -0 -0 -0 -0 -0 -0 -0 -0 -0 -0 -0 -0 -0 -0 -0
-0 -0 -0 -0 -0 -0 -0 -0 -0 -0 -0 -0 -0 -0 -0 -0 -0 -0 -0 -0 -0 -0 -0 -0 -0 -0 -0 -0 -0 -0 -0 -0 -0 -0 -0 -0 -0 -0 -0 -0 -0 -0 -0 -0 -0
-0 -0 -0 -0 -0 -0 -0 -0 -0 -0 -0 -0 -0 -0 -0 -0 -0 -0 -0 -0 -0 -12 -0 -0 -0 -0 -0 -0 -0 -0 -0 -0 -0 -0 -0 -0 -0 -0 -0 -31 -0 -0 -0 -0 -0
-0 -0 -0 -0 -0 -0 -0 -0 -0 -0 -0 -0 -0 -0 -0 -0 -0 -0 -0 -3 -0 -19 -0 -0 -0 -0 -0 -0 -0 -0 -0 -0 -0 -0 -0 -5 -0 -0 -0 -0 -0 -0 -0 -0 -0
-0 -0 -0 -0 -0 -0 -0 -0 -0 -0 -0 -0 -0 -0 -0 -0 -0 -0 -25 -25 -0 -0 -0 -0 -0 -0 -0 -0 -0 -0 -0 -0 -0 -0 -0 -0 -0 -0 -0 -0 -0 -0 -0 -0 -0
-0 -0 -0 -0 -0 -0 -0 -0 -0 -0 -0 -0 -0 -0 -0 -0 -0 -0 -0 -0 -0 -0 -35 -12 -12 -0 -0 -0 -0 -0 -0 -0 -0 -3 -0 -0 -0 -0 -0 -0 -0 -0 -0 -0 -0
-0 -0 -0 -0 -0 -0 -0 -0 -0 -0 -0 -0 -0 -0 -0 -0 -0 -0 -0 -0 -0 -0 -0 -13 -1 -0 -0 -0 -0 -0 -0 -0 -0 -0 -1 -0 -0 -0 -0 -0 -26 -0 -0 -0 -81
-0 -0 -0 -0 -0 -0 -0 -0 -0 -0 -0 -0 -0 -0 -0 -0 -0 -0 -0 -0 -0 -0 -0 -0 -0 -0 -0 -0 -0 -0 -0 -0 -0 -0 -0 -11 -0 -0 -0 -0 -0 -0 -0 -0 -0
-0 -0 -0 -0 -0 -0 -0 -0 -0 -0 -0 -0 -0 -0 -0 -0 -0 -0 -0 -0 -0 -0 -0 -0 -0 -0 -0 -0 -0 -0 -0 -0 -0 -0 -0 -0 -0 -0 -0 -0 -0 -0 -0 -0 -0
Wind_Speed
30 29 29 29 29 29 29 29 28 28 28 29 30 31 32 33 34 29 29 23 19 23 25 28 29 29 28 29 27 24 36 38 37 42 31 31 30 28 27 29 25 20 19 25 12
30 30 29 29 30 30 29 29 28 28 28 29 30 31 31 30 28 25 20 18 16 18 23 25 29 28 31 29 28 32 41 41 32 32 39 42 37 35 33 33 32 26 24 21 15
30 29 29 29 30 30 30 29 29 29 28 29 30 29 28 26 20 20 16 12 15 17 22 23 25 27 31 29 30 32 45 38 36 30 30 41 45 36 38 44 32 32 31 28 22
29 29 30 30 30 30 30 30 29 29 29 29 29 27 25 17 17 16 14 11 10 14 18 19 21 26 30 33 30 38 33 35 34 35 36 43 45 48 45 51 40 35 33 30 26
32 30 28 29 30 30 31 31 30 29 29 28 27 25 20 19 17 15 13 12 12 13 17 16 20 24 29 29 32 37 38 36 36 36 37 40 45 45 56 50 43 40 35 32 30
33 31 29 27 28 29 30 31 30 30 29 27 25 22 18 18 16 18 13 13 14 15 17 15 19 22 24 27 30 29 33 35 33 34 35 39 43 38 57 42 44 43 40 35 35
35 34 32 30 28 26 24 23 28 29 27 25 22 18 18 10 17 20 14 17 17 16 18 17 19 22 21 27 26 31 38 36 34 35 37 34 46 44 52 45 48 45 43 38 37
31 27 34 32 30 26 23 19 18 20 24 18 17 16 18 15 22 22 16 20 19 15 18 24 19 20 22 23 26 28 28 33 27 27 31 28 53 35 32 36 45 45 41 43 41
29 30 31 32 30 26 23 19 16 11 8 10 14 14 16 22 15 16 14 18 21 19 18 21 18 19 20 23 25 23 27 28 29 26 27 28 36 32 32 36 40 42 44 40 42
25 27 30 31 29 26 23 18 19 16 15 13 11 16 14 16 15 18 18 16 19 21 21 17 17 21 21 21 28 30 30 29 30 28 32 39 43 36 37 36 40 41 43 45 47
18 23 23 24 28 24 23 19 21 18 16 11 12 11 18 18 19 15 15 17 17 19 19 19 20 22 26 24 27 29 28 28 29 29 35 39 47 43 39 39 40 41 42 44 43
14 18 20 19 23 22 19 20 21 21 25 7 2 2 12 16 20 23 13 13 18 20 19 20 21 18 21 21 23 24 26 30 29 33 38 43 54 47 42 40 39 41 41 41 44
13 13 15 18 12 17 18 22 26 22 20 20 15 14 10 8 12 14 12 14 19 20 19 20 21 23 21 21 24 25 27 31 35 37 38 43 56 49 40 41 44 40 39 42 45
12 10 8 10 15 15 15 25 26 18 18 17 17 16 13 14 16 12 12 14 18 17 17 17 15 17 22 23 23 28 25 30 36 38 43 33 58 45 44 43 39 44 48 49 48
12 8 5 9 13 15 11 13 19 16 19 15 17 16 15 15 20 18 12 14 15 17 17 20 21 23 26 21 20 25 25 30 33 37 38 35 43 42 49 48 44 42 39 39 42
11 5 7 17 14 12 5 6 16 17 21 19 19 21 20 20 23 21 16 16 17 19 19 23 19 20 19 20 21 22 27 32 30 34 39 36 36 45 33 35 43 44 41 40 42
11 3 15 17 16 13 13 17 16 18 18 20 19 25 23 26 24 20 13 18 23 26 26 22 21 18 18 22 23 25 31 38 36 37 41 34 42 48 51 45 37 37 35 36 40
7 18 19 16 13 15 18 18 19 17 17 19 20 22 18 25 25 27 18 19 22 20 21 22 24 19 18 23 25 28 27 32 43 45 52 41 43 42 37 35 34 34 36 37 40
17 22 21 18 18 20 19 20 18 19 20 17 20 19 18 19 23 25 22 22 21 21 23 25 25 20 23 22 24 25 29 26 36 37 45 41 43 45 40 35 33 36 36 39 41
21 22 23 18 19 21 20 18 16 20 21 16 18 19 20 20 18 21 26 22 20 20 19 21 32 25 23 21 24 22 22 29 28 40 44 41 41 41 37 37 35 40 41 42 44
21 20 22 21 20 23 20 17 17 19 23 19 17 17 20 19 18 20 21 22 21 21 21 24 25 27 23 23 24 23 23 23 25 27 38 46 42 26 30 39 41 42 43 43 44
20 18 22 22 21 21 20 19 18 19 21 18 16 15 17 18 18 18 21 22 26 21 27 20 24 28 25 25 18 15 18 19 25 29 27 35 47 34 40 37 41 45 45 44 41
21 16 19 20 20 21 20 19 18 21 21 20 18 18 19 18 19 17 20 19 21 23 23 19 21 28 25 17 17 18 16 18 20 20 18 30 30 21 35 44 43 41 42 40 38
23 21 19 21 19 21 22 19 21 20 18 19 17 18 20 18 15 19 25 24 28 28 29 18 19 19 22 22 25 35 13 16 15 16 16 17 33 45 46 43 40 40 39 38 36
25 21 21 19 18 20 18 18 21 23 19 20 18 19 18 19 17 18 24 31 35 30 25 13 20 19 19 36 36 21 17 11 12 14 14 18 20 43 44 39 37 36 39 39 37
26 24 22 18 18 19 19 20 21 22 22 22 22 21 19 16 12 31 35 31 26 22 21 19 22 20 34 36 23 22 11 9 11 9 10 12 19 38 32 37 40 41 44 43 39
24 21 21 20 20 21 20 21 21 24 21 18 23 23 21 17 20 15 14 10 8 17 17 15 17 25 34 26 32 29 3 6 13 12 16 12 11 21 39 40 43 45 46 43 39
Wind_Direction
323 320 317 316 316 316 315 314 314 314 314 311 308 306 306 303 299 302 294 293 297 281 276 272 270 265 264 262 263 266 259 260 259 255 261 265 267 267 265 271 280 289 309 312 298
323 320 316 313 312 313 313 313 312 312 313 312 308 305 306 308 308 305 308 296 291 289 276 271 264 263 257 260 261 256 256 257 265 269 264 261 264 264 266 266 266 278 292 318 325
318 314 311 309 309 310 309 309 309 309 310 310 307 305 307 313 324 325 327 312 300 290 279 276 270 263 257 259 258 261 256 261 265 274 274 263 258 266 264 254 264 272 282 296 301
314 311 309 307 303 303 304 305 303 302 305 308 306 306 308 340 329 334 355 357 333 307 286 278 271 260 258 256 261 259 266 265 271 271 273 267 265 260 260 248 264 272 280 283 286
321 312 302 301 300 296 296 298 299 299 302 302 307 310 322 322 322 327 347 353 337 316 289 284 273 266 260 263 263 262 266 271 273 273 274 272 266 264 254 252 264 267 273 277 279
322 312 305 297 292 290 287 290 287 290 299 303 312 319 327 317 321 315 334 333 322 311 294 292 280 278 272 268 265 270 270 273 276 276 274 271 267 269 241 262 262 264 269 272 272
327 319 310 305 296 287 276 265 272 277 294 312 319 330 326 337 318 311 325 310 312 302 292 297 293 281 280 273 274 274 270 274 277 277 271 275 266 263 255 268 265 264 265 271 271
311 304 314 309 302 291 278 260 246 240 260 335 337 342 321 323 300 296 317 299 302 306 297 283 296 289 283 283 281 277 279 274 279 280 277 267 260 272 277 274 267 266 267 267 269
305 306 305 309 304 295 281 264 245 202 121 42 4 349 326 290 318 311 322 311 302 306 301 296 298 290 291 285 281 282 274 278 279 290 282 271 272 276 281 279 273 272 269 271 270
300 301 304 304 302 297 289 272 8 31 42 44 32 337 326 329 320 309 320 313 311 305 299 304 295 285 289 286 273 277 280 282 281 284 285 274 272 279 280 281 278 276 275 272 271
298 297 296 296 301 299 318 356 354 359 11 13 14 0 314 321 321 335 326 320 320 316 297 301 291 285 283 285 285 285 286 286 288 292 289 281 274 279 283 281 281 279 278 276 276
307 297 294 288 292 305 354 354 357 350 324 5 106 135 182 333 322 297 341 335 323 310 308 298 290 299 298 296 293 290 289 290 291 297 293 287 274 279 282 282 283 282 280 280 278
318 303 290 283 259 37 14 345 317 340 338 338 15 17 13 16 352 338 343 339 326 317 310 302 295 296 305 305 298 297 295 295 294 297 296 292 277 280 282 282 282 281 281 281 279
328 312 290 271 80 67 55 336 331 7 343 344 346 354 9 354 337 349 332 333 331 324 327 319 325 316 308 305 305 295 307 304 301 300 290 302 276 285 286 284 283 282 281 280 279
330 312 280 114 92 81 79 263 12 31 349 357 353 1 347 336 329 326 338 326 325 325 326 310 310 310 309 313 316 307 315 309 307 300 298 296 287 281 290 287 288 287 287 284 283
327 334 81 78 80 76 78 88 58 33 354 359 360 346 336 326 317 315 320 312 320 316 316 311 318 316 315 320 319 321 314 312 310 304 292 298 290 285 293 299 296 291 289 287 285
322 320 75 79 62 55 51 50 49 39 23 7 357 345 338 325 327 323 315 306 302 302 304 312 314 318 320 314 320 321 314 303 300 299 293 303 294 283 289 295 302 298 296 292 289
328 62 67 71 64 50 46 44 38 35 25 10 0 352 352 336 321 319 312 304 318 314 308 305 303 313 322 315 313 314 314 305 296 296 295 302 291 291 299 298 302 302 298 297 294
49 49 49 52 47 42 42 39 37 27 15 11 0 351 347 349 333 315 313 305 311 315 303 303 302 315 317 320 319 316 311 317 305 305 299 299 297 297 296 292 294 303 302 298 297
36 34 38 44 44 36 38 38 35 22 12 15 5 360 349 347 340 326 303 313 311 319 321 311 300 312 316 321 321 318 325 314 316 305 299 302 298 295 296 295 295 299 300 300 301
29 35 34 34 34 31 36 32 24 19 13 12 8 358 349 347 344 330 305 307 316 314 321 314 307 309 317 318 317 317 319 320 319 313 306 301 297 307 298 297 298 296 300 301 302
30 33 23 26 31 30 28 21 17 11 11 10 10 5 357 352 346 334 310 303 311 316 309 319 311 305 313 321 324 325 326 328 319 316 316 310 300 296 280 287 296 290 295 300 299
23 28 28 26 27 21 17 12 15 13 11 11 8 7 0 352 346 339 321 323 315 313 312 319 314 310 317 336 343 335 339 336 326 320 295 311 267 301 300 290 292 290 293 295 307
23 22 25 27 28 20 13 16 10 9 10 10 4 3 354 348 350 337 315 313 305 304 301 314 309 305 305 316 317 297 306 321 315 313 301 284 258 265 281 286 294 304 301 305 312
18 22 21 16 18 9 11 8 4 4 5 2 0 358 355 352 346 335 319 301 296 299 305 310 302 307 307 285 275 250 253 307 300 273 274 268 258 264 276 296 305 310 311 309 314
15 15 15 9 13 10 11 8 2 1 358 355 356 354 350 341 334 308 303 303 308 314 304 307 303 311 280 267 242 246 266 281 271 284 273 269 258 278 305 300 299 301 297 293 287
16 20 17 13 12 9 8 7 1 356 359 1 355 348 342 341 339 253 243 244 284 311 314 316 312 302 280 308 300 282 326 8 357 357 347 324 283 338 306 302 295 292 288 281 299